Погода в Атакуме

Турция     41°19′57″N   36°08′57″E
темп.,
°C
ветер,
м/с
пор.,
м/с
влажн.,
%
обл.,
%
осадки,
мм/ч
давл.,
гПа
погр.,
м
16 октября, сб
сб1600:00+14ю22906 0.0 101625
03:00+14ююз22760 0.0 101526
06:00+15юз33630 0.0 101437
09:00+20юз34510 0.0 1013153
12:00+25юз14350 0.0 1012702
15:00+25ссв12395 0.0 1011837
18:00+16сз2378100 0.0 1013192
21:00+14всв118637 0.1 101419
17 октября, вс
вс1700:00+15сз128994 0.0 1014189
03:00+15сз0192100 0.0 101469
06:00+14зсз119395 0.0 101430
09:00+16ссз228263 0.1 1015451
12:00+17ссв3275100 0.1 1015762
15:00+17ссв2276100 1.0 1015526
18:00+14ссв129687 3.7 1016195
21:00+14зсз0191100 4.0 101790
18 октября, пн
пн1800:00+13сз1291100 0.7 101780
03:00+13з119499 3.4 101792
06:00+13сз2296100 15.6 1017145
09:00+13юз0190100 19.6 1019121
12:00+14сз138298 0.1 1019550
15:00+14ссз248084 0.6 1019582
18:00+13сз2486100 0.4 1020346
21:00+12зсз248797 0.5 1021236
19 октября, вт
вт1900:00+12з128597 0.1 1022103
03:00+12з118559 0.1 102281
06:00+11з118662 0.1 102234
09:00+13с117768 0.1 1023330
12:00+15ссв226984 0.1 10221021
15:00+13с238383 0.5 1022419
18:00+12ссз277894 0.1 1023672
21:00+12юз128050 0.3 102478
20 октября, ср
ср2000:00+10зсз238799 0.6 1025137
03:00+10сз41081100 1.0 1026734
06:00+9сз397999 0.0 1028584
09:00+11сз476615 0.0 10291075
12:00+12ссз555328 0.0 10291461
15:00+13с435587 0.0 10281265
18:00+9св228278 0.3 102998
21:00+9ююв118365 0.4 102992